This is the latest recevied weather packets stored in our database for station/object K7UHP. If no packets are shown the sender has not sent any weather packets the latest 10 day(s).
| Time | Temp. | Humidity | Pressure | Rain* | Wind** | Luminosity | Snow |
|---|---|---|---|---|---|---|---|
| 1778005677 | 13.89° C | 49% | 1011.5 hPa | 0 mm | - | - | - |
| 1778005048 | 13.89° C | 48% | 1011.5 hPa | 0 mm | - | - | - |
| 1778004418 | 13.89° C | 48% | 1011.5 hPa | 0 mm | - | - | - |
| 1778003788 | 13.89° C | 49% | 1011.3 hPa | 0 mm | - | - | - |
| 1778003188 | 14.44° C | 48% | 1011.4 hPa | 0 mm | - | - | - |
| 1778002557 | 14.44° C | 47% | 1011.3 hPa | 0 mm | - | - | - |
| 1778001928 | 15° C | 47% | 1011.2 hPa | 0 mm | - | - | - |
| 1778001327 | 14.44° C | 48% | 1011.3 hPa | 0 mm | - | - | - |
| 1778000727 | 14.44° C | 47% | 1011.2 hPa | 0 mm | - | - | - |
| 1778000127 | 13.89° C | 48% | 1011.1 hPa | 0 mm | - | - | - |
| 1777999497 | 13.89° C | 47% | 1011.2 hPa | 0 mm | - | - | - |
| 1777998897 | 13.89° C | 48% | 1011.1 hPa | 0 mm | - | - | - |
| 1777998297 | 13.89° C | 48% | 1011.1 hPa | 0 mm | - | - | - |
| 1777997697 | 13.89° C | 48% | 1011 hPa | 0 mm | - | - | - |
| 1777997067 | 13.89° C | 49% | 1011 hPa | 0 mm | - | - | - |
| 1777996437 | 13.89° C | 49% | 1011 hPa | 0 mm | - | - | - |
| 1777995837 | 13.33° C | 50% | 1010.9 hPa | 0 mm | - | - | - |
| 1777995236 | 13.33° C | 51% | 1010.8 hPa | 0 mm | - | - | - |
| 1777994635 | 13.33° C | 53% | 1010.8 hPa | 0 mm | - | - | - |
| 1777994034 | 13.33° C | 53% | 1010.7 hPa | 0 mm | - | - | - |
| 1777993434 | 13.89° C | 51% | 1010.7 hPa | 0 mm | - | - | - |
| 1777992833 | 13.89° C | 46% | 1010.7 hPa | 0 mm | - | - | - |
| 1777992232 | 14.44° C | 47% | 1010.5 hPa | 0 mm | - | - | - |
| 1777991631 | 14.44° C | 45% | 1010.5 hPa | 0 mm | - | - | - |
| 1777991031 | 14.44° C | 44% | 1010.4 hPa | 0 mm | - | - | - |
* Rain latest hour (hover to see other rain measurements)
** Current wind speed in m/s (hover to see current wind gust speed)